Yankton, SD

11:07 PM CST on February 19, 2017 (GMT -0600)
Gurney Municipal

Weather History for KYKN - October, 2011

Change the Weather History Date:

Wednesday, October 5, 2011

  Actual Average Record
Temperature  
Mean Temperature 70 °F -  
Max Temperature 84 °F 68 °F 87 °F (1975)
Min Temperature 57 °F 41 °F 26 °F (1988)
Cooling Degree Days 6    
Growing Degree Days 20 (Base 50)    
Moisture  
Dew Point 42 °F    
Average Humidity 35    
Maximum Humidity 59    
Minimum Humidity 19    
Precipitation  
Precipitation 0.00 in - - ()
Sea Level Pressure  
Sea Level Pressure 29.95 in    
Wind  
Wind Speed 13 mph (SSE)    
Max Wind Speed 28 mph    
Max Gust Speed 34 mph    
Visibility 10 miles    
Events      
Averages and records for this station are not official NWS values.
T = Trace of Precipitation, MM = Missing Value Source: NWS Daily Summary

Daily Weather History Graph

Daily Weather History Graph

Search for Another Location

Airport or City:

Trip Planner

Search our weather history database for the weather conditions in past years. The results will help you decide how hot, cold, wet, or windy it might be!

Date:

Astronomy

Oct. 05, 2011 Rise Set
Actual Time 7:31 AM CDT 7:04 PM CDT
Civil Twilight 7:02 AM CDT 7:32 PM CDT
Nautical Twilight 6:29 AM CDT 8:05 PM CDT
Astronomical Twilight 5:56 AM CDT 8:38 PM CDT
Moon 3:53 PM CDT (10/5) 1:10 AM CDT (10/5)
Length of Visible Light 12h 29m
Length of Day
11h 33m
Waxing Gibbous, 66% of the Moon is Illuminated
Oct 5
Waxing Gibbous
Oct 11
Full
Oct 19
Last Quarter
Oct 26
New
Nov 2
First Quarter

Hourly Weather History & Observations

Time (CDT) Temp. Dew Point Humidity Pressure Visibility Wind Dir Wind Speed Gust Speed Precip Events Conditions
12:15 AM 71.6 °F 42.8 °F 35% 29.97 in 10.0 mi SSE 12.7 mph - N/A   Clear
12:35 AM 71.6 °F 44.6 °F 38% 29.97 in 10.0 mi South 13.8 mph - N/A   Clear
12:55 AM 71.6 °F 42.8 °F 35% 29.97 in 10.0 mi South 12.7 mph - N/A   Clear
1:15 AM 71.6 °F 42.8 °F 35% 29.97 in 10.0 mi South 12.7 mph - N/A   Clear
1:35 AM 69.8 °F 42.8 °F 38% 29.97 in 10.0 mi SSE 11.5 mph - N/A   Clear
1:55 AM 69.8 °F 42.8 °F 38% 29.98 in 10.0 mi SSE 12.7 mph - N/A   Clear
2:15 AM 66.2 °F 44.6 °F 46% 29.98 in 10.0 mi South 9.2 mph - N/A   Clear
2:35 AM 66.2 °F 42.8 °F 43% 29.98 in 10.0 mi South 9.2 mph - N/A   Clear
2:55 AM 66.2 °F 42.8 °F 43% 29.99 in 10.0 mi South 8.1 mph - N/A   Clear
3:15 AM 66.2 °F 42.8 °F 43% 29.99 in 10.0 mi South 8.1 mph - N/A   Clear
3:35 AM 64.4 °F 42.8 °F 45% 29.99 in 10.0 mi South 9.2 mph - N/A   Clear
3:55 AM 64.4 °F 42.8 °F 45% 29.98 in 10.0 mi South 8.1 mph - N/A   Clear
4:15 AM 64.4 °F 42.8 °F 45% 29.98 in 10.0 mi South 8.1 mph - N/A   Clear
4:55 AM 64.4 °F 42.8 °F 45% 29.98 in 10.0 mi South 6.9 mph - N/A   Clear
5:15 AM 64.4 °F 42.8 °F 45% 29.97 in 10.0 mi South 6.9 mph - N/A   Clear
5:35 AM 62.6 °F 42.8 °F 48% 29.98 in 10.0 mi SE 9.2 mph - N/A   Clear
5:55 AM 60.8 °F 42.8 °F 52% 29.98 in 10.0 mi ESE 9.2 mph - N/A   Clear
6:15 AM 60.8 °F 44.6 °F 55% 29.99 in 10.0 mi SE 9.2 mph - N/A   Clear
6:35 AM 59.0 °F 42.8 °F 55% 29.99 in 10.0 mi SSE 8.1 mph - N/A   Clear
6:55 AM 60.8 °F 42.8 °F 52% 29.99 in 10.0 mi SSE 9.2 mph - N/A   Clear
7:15 AM 60.8 °F 42.8 °F 52% 29.99 in 10.0 mi SSE 6.9 mph - N/A   Clear
7:35 AM 57.2 °F 42.8 °F 59% 29.99 in 10.0 mi SSE 9.2 mph - N/A   Clear
8:15 AM 60.8 °F 44.6 °F 55% 29.99 in 10.0 mi SSE 9.2 mph - N/A   Clear
8:35 AM 60.8 °F 44.6 °F 55% 30.00 in 10.0 mi SSE 13.8 mph - N/A   Clear
9:15 AM 62.6 °F 44.6 °F 52% 30.00 in 10.0 mi SSE 9.2 mph - N/A   Clear
9:35 AM 64.4 °F 44.6 °F 49% 30.00 in 10.0 mi South 10.4 mph - N/A   Clear
9:55 AM 66.2 °F 44.6 °F 46% 30.00 in 10.0 mi SSE 11.5 mph - N/A   Clear
10:35 AM 71.6 °F 44.6 °F 38% 30.00 in 10.0 mi SSE 12.7 mph 18.4 mph N/A   Clear
10:55 AM 73.4 °F 44.6 °F 36% 29.99 in 10.0 mi South 15.0 mph - N/A   Clear
11:15 AM 75.2 °F 44.6 °F 34% 29.99 in 10.0 mi South 12.7 mph - N/A   Clear
11:35 AM 77.0 °F 44.6 °F 32% 29.99 in 10.0 mi South 16.1 mph 20.7 mph N/A   Clear
11:55 AM 78.8 °F 44.6 °F 30% 29.98 in 10.0 mi SSE 13.8 mph 20.7 mph N/A   Clear
12:15 PM 78.8 °F 42.8 °F 28% 29.97 in 10.0 mi SSE 18.4 mph 21.9 mph N/A   Clear
12:35 PM 80.6 °F 42.8 °F 26% 29.97 in 10.0 mi SSE 20.7 mph 24.2 mph N/A   Clear
12:55 PM 82.4 °F 42.8 °F 25% 29.96 in 10.0 mi SSE 19.6 mph 27.6 mph N/A   Clear
1:15 PM 82.4 °F 42.8 °F 25% 29.95 in 10.0 mi SSE 20.7 mph 29.9 mph N/A   Clear
1:35 PM 84.2 °F 42.8 °F 23% 29.94 in 10.0 mi SSE 20.7 mph 28.8 mph N/A   Clear
1:55 PM 84.2 °F 42.8 °F 23% 29.93 in 10.0 mi SSE 24.2 mph 33.4 mph N/A   Clear
2:35 PM 84.2 °F 39.2 °F 20% 29.91 in 10.0 mi SSE 26.5 mph 34.5 mph N/A   Clear
2:55 PM 84.2 °F 39.2 °F 20% 29.91 in 10.0 mi SSE 25.3 mph 33.4 mph N/A   Clear
3:15 PM 84.2 °F 39.2 °F 20% 29.90 in 10.0 mi SSE 20.7 mph - N/A   Clear
3:35 PM 84.2 °F 37.4 °F 19% 29.89 in 10.0 mi SSE 25.3 mph 34.5 mph N/A   Clear
3:55 PM 84.2 °F 37.4 °F 19% 29.89 in 10.0 mi SSE 21.9 mph 31.1 mph N/A   Clear
4:15 PM 84.2 °F 37.4 °F 19% 29.89 in 10.0 mi SSE 27.6 mph 33.4 mph N/A   Clear
4:55 PM 82.4 °F 37.4 °F 20% 29.88 in 10.0 mi SE 25.3 mph 33.4 mph N/A   Clear
5:15 PM 82.4 °F 39.2 °F 21% 29.88 in 10.0 mi SSE 26.5 mph 32.2 mph N/A   Clear
5:35 PM 82.4 °F 39.2 °F 21% 29.88 in 10.0 mi SSE 15.0 mph 25.3 mph N/A   Clear
5:55 PM 80.6 °F 39.2 °F 23% 29.88 in 10.0 mi SSE 20.7 mph 27.6 mph N/A   Clear
6:15 PM 80.6 °F 39.2 °F 23% 29.88 in 10.0 mi SE 19.6 mph 24.2 mph N/A   Clear
6:35 PM 78.8 °F 39.2 °F 24% 29.88 in 10.0 mi SSE 17.3 mph 26.5 mph N/A   Clear
6:55 PM 78.8 °F 39.2 °F 24% 29.88 in 10.0 mi SSE 17.3 mph 23.0 mph N/A   Clear
7:15 PM 75.2 °F 37.4 °F 25% 29.89 in 10.0 mi SE 15.0 mph - N/A   Clear
7:35 PM 75.2 °F 37.4 °F 25% 29.89 in 10.0 mi SE 15.0 mph 21.9 mph N/A   Clear
7:55 PM 73.4 °F 37.4 °F 27% 29.89 in 10.0 mi SE 12.7 mph - N/A   Clear
8:15 PM 73.4 °F 37.4 °F 27% 29.90 in 10.0 mi SE 15.0 mph - N/A   Clear
8:35 PM 71.6 °F 39.2 °F 31% 29.90 in 10.0 mi SE 11.5 mph - N/A   Clear
9:15 PM 69.8 °F 37.4 °F 31% 29.90 in 10.0 mi SE 15.0 mph - N/A   Clear
9:35 PM 69.8 °F 37.4 °F 31% 29.90 in 10.0 mi SE 15.0 mph 20.7 mph N/A   Clear
9:55 PM 68.0 °F 37.4 °F 33% 29.91 in 10.0 mi SE 15.0 mph 21.9 mph N/A   Clear
10:15 PM 68.0 °F 37.4 °F 33% 29.91 in 10.0 mi SE 17.3 mph - N/A   Clear
10:35 PM 66.2 °F 37.4 °F 35% 29.91 in 10.0 mi SE 13.8 mph - N/A   Clear
10:55 PM 66.2 °F 37.4 °F 35% 29.92 in 10.0 mi SE 12.7 mph - N/A   Clear
11:15 PM 66.2 °F 37.4 °F 35% 29.91 in 10.0 mi SE 13.8 mph - N/A   Clear
11:35 PM 66.2 °F 37.4 °F 35% 29.91 in 10.0 mi SE 16.1 mph - N/A   Clear
11:55 PM 66.2 °F 37.4 °F 35% 29.91 in 10.0 mi SE 16.1 mph - N/A   Clear